Time,TemperatureF,DewpointF,PressureIn,WindDirection,WindDirectionDegrees,WindSpeedMPH,WindSpeedGustMPH,Humidity,HourlyPrecipIn,Conditions,Clouds,dailyrainin,SoftwareType,DateUTC
2013-02-23 00:00:00,31.5,28.0,29.12,WSW,248,1.1,1.1,87,0.00,,OVC017,0.00,VWS V14.01,2013-02-23 05:00:00,
2013-02-23 00:05:00,31.3,27.6,29.12,SSW,202,5.4,5.4,86,0.00,,OVC028,0.00,VWS V14.01,2013-02-23 05:05:00,
2013-02-23 00:10:00,31.1,27.4,29.12,SSW,202,3.1,3.1,86,0.00,,OVC028,0.00,VWS V14.01,2013-02-23 05:10:00,
2013-02-23 00:15:00,31.1,27.4,29.12,WSW,248,5.4,5.4,86,0.00,,OVC028,0.00,VWS V14.01,2013-02-23 05:15:00,
2013-02-23 00:20:00,31.1,27.4,29.12,South,180,2.5,2.5,86,0.00,,OVC028,0.00,VWS V14.01,2013-02-23 05:20:00,
2013-02-23 00:25:00,30.9,27.2,29.12,WSW,248,4.0,4.0,86,0.00,,OVC028,0.00,VWS V14.01,2013-02-23 05:25:00,
2013-02-23 00:30:00,30.9,27.2,29.12,SSE,158,3.4,3.4,86,0.00,,OVC028,0.00,VWS V14.01,2013-02-23 05:30:00,
2013-02-23 00:35:00,30.9,27.2,29.12,SSW,202,3.4,3.4,86,0.00,,OVC028,0.00,VWS V14.01,2013-02-23 05:35:00,
2013-02-23 00:40:00,30.9,27.2,29.12,SSW,202,2.5,2.5,86,0.00,,OVC028,0.00,VWS V14.01,2013-02-23 05:40:00,
2013-02-23 00:45:00,30.7,27.1,29.12,SSW,202,2.9,2.9,86,0.00,,OVC028,0.00,VWS V14.01,2013-02-23 05:45:00,
2013-02-23 00:50:00,30.7,27.1,29.12,South,180,3.6,3.6,86,0.00,,OVC028,0.00,VWS V14.01,2013-02-23 05:50:00,
2013-02-23 00:55:00,30.7,27.1,29.12,WSW,248,2.2,2.2,86,0.00,,OVC028,0.00,VWS V14.01,2013-02-23 05:55:00,
2013-02-23 01:00:00,30.6,26.9,29.12,WSW,248,8.5,8.5,86,0.00,,OVC028,0.00,VWS V14.01,2013-02-23 06:00:00,
2013-02-23 01:05:00,30.6,26.9,29.12,SSW,202,4.3,4.3,86,0.00,,OVC028,0.00,VWS V14.01,2013-02-23 06:05:00,
2013-02-23 01:10:00,30.6,26.9,29.12,SSE,158,4.9,4.9,86,0.00,,OVC028,0.00,VWS V14.01,2013-02-23 06:10:00,
2013-02-23 01:15:00,30.6,26.9,29.12,West,270,2.2,2.2,86,0.00,,OVC028,0.00,VWS V14.01,2013-02-23 06:15:00,
2013-02-23 01:20:00,30.4,26.7,29.12,SSW,202,2.2,2.2,86,0.00,,OVC028,0.00,VWS V14.01,2013-02-23 06:20:00,
2013-02-23 01:25:00,30.4,26.7,29.12,WSW,248,2.5,2.5,86,0.00,,OVC028,0.00,VWS V14.01,2013-02-23 06:25:00,
2013-02-23 01:30:00,30.4,26.7,29.12,SSW,202,3.8,3.8,86,0.00,,OVC028,0.00,VWS V14.01,2013-02-23 06:30:00,
2013-02-23 01:35:00,30.4,26.7,29.12,SSW,202,3.6,3.6,86,0.00,,OVC028,0.00,VWS V14.01,2013-02-23 06:35:00,
2013-02-23 01:40:00,30.4,26.7,29.12,SSE,158,5.6,5.6,86,0.00,,OVC028,0.00,VWS V14.01,2013-02-23 06:40:00,
2013-02-23 01:45:00,30.4,26.7,29.12,SSW,202,1.6,1.6,86,0.00,,OVC028,0.00,VWS V14.01,2013-02-23 06:45:00,
2013-02-23 01:50:00,30.4,26.7,29.12,SSW,202,3.6,3.6,86,0.00,,OVC028,0.00,VWS V14.01,2013-02-23 06:50:00,
2013-02-23 01:55:00,30.2,26.8,29.12,SW,225,2.2,2.2,87,0.00,,OVC028,0.00,VWS V14.01,2013-02-23 06:55:00,
2013-02-23 02:00:00,30.4,26.7,29.12,SSW,202,3.1,3.1,86,0.00,,OVC028,0.00,VWS V14.01,2013-02-23 07:00:00,
2013-02-23 02:04:00,30.2,26.5,29.12,SSW,202,2.0,2.0,86,0.00,,OVC034,0.00,VWS V14.01,2013-02-23 07:04:00,
2013-02-23 02:09:00,30.4,26.7,29.12,SW,225,2.9,2.9,86,0.00,,OVC034,0.00,VWS V14.01,2013-02-23 07:09:00,
2013-02-23 02:14:00,30.4,26.7,29.12,SSW,202,0.0,0.0,86,0.00,,OVC034,0.00,VWS V14.01,2013-02-23 07:14:00,
2013-02-23 02:19:00,30.0,26.4,29.12,SSE,158,2.0,2.0,86,0.00,,OVC034,0.00,VWS V14.01,2013-02-23 07:19:00,
2013-02-23 02:24:00,30.0,26.4,29.12,South,180,3.8,3.8,86,0.00,,OVC034,0.00,VWS V14.01,2013-02-23 07:24:00,
2013-02-23 02:29:00,30.0,26.4,29.12,SSE,158,2.5,2.5,86,0.00,,OVC034,0.00,VWS V14.01,2013-02-23 07:29:00,
2013-02-23 02:34:00,29.8,26.2,29.12,WSW,248,3.4,3.4,86,0.00,,OVC034,0.00,VWS V14.01,2013-02-23 07:34:00,
2013-02-23 02:39:00,29.8,26.2,29.12,SSE,158,3.6,3.6,86,0.00,,OVC034,0.00,VWS V14.01,2013-02-23 07:39:00,
2013-02-23 02:44:00,29.8,26.2,29.12,SSE,158,1.3,1.3,86,0.00,,OVC034,0.00,VWS V14.01,2013-02-23 07:44:00,
2013-02-23 02:49:00,29.7,26.0,29.12,SSW,202,2.5,2.5,86,0.00,,OVC034,0.00,VWS V14.01,2013-02-23 07:49:00,
2013-02-23 02:54:00,29.7,26.0,29.12,SSW,202,2.5,2.5,86,0.00,,OVC034,0.00,VWS V14.01,2013-02-23 07:54:00,
2013-02-23 02:59:00,29.7,26.0,29.09,SSE,158,1.1,1.1,86,0.00,,OVC034,0.00,VWS V14.01,2013-02-23 07:59:00,
2013-02-23 03:04:00,29.7,26.0,29.12,SSW,202,2.5,2.5,86,0.00,,OVC034,0.00,VWS V14.01,2013-02-23 08:04:00,
2013-02-23 03:09:00,29.7,26.0,29.09,SSW,202,4.3,4.3,86,0.00,,OVC034,0.00,VWS V14.01,2013-02-23 08:09:00,
2013-02-23 03:14:00,29.7,26.3,29.09,SSW,202,2.5,2.5,87,0.00,,OVC034,0.00,VWS V14.01,2013-02-23 08:14:00,
2013-02-23 03:19:00,29.7,26.3,29.12,SSE,158,3.1,3.1,87,0.00,,OVC034,0.00,VWS V14.01,2013-02-23 08:19:00,
2013-02-23 03:24:00,29.7,26.0,29.12,South,180,0.0,0.0,86,0.00,,OVC034,0.00,VWS V14.01,2013-02-23 08:24:00,
2013-02-23 03:29:00,29.7,26.0,29.12,South,180,2.9,2.9,86,0.00,,OVC034,0.00,VWS V14.01,2013-02-23 08:29:00,
2013-02-23 03:34:00,29.7,26.0,29.12,SSW,202,2.0,2.0,86,0.00,,OVC034,0.00,VWS V14.01,2013-02-23 08:34:00,
2013-02-23 03:39:00,29.7,26.0,29.09,SSW,202,0.0,0.0,86,0.00,,OVC034,0.00,VWS V14.01,2013-02-23 08:39:00,
2013-02-23 03:44:00,29.7,26.3,29.09,SSW,202,3.1,3.1,87,0.00,,OVC034,0.00,VWS V14.01,2013-02-23 08:44:00,
2013-02-23 03:49:00,29.7,26.3,29.12,SSW,202,3.4,3.4,87,0.00,,OVC034,0.00,VWS V14.01,2013-02-23 08:49:00,
2013-02-23 03:54:00,29.7,26.3,29.12,SSW,202,3.6,3.6,87,0.00,,OVC034,0.00,VWS V14.01,2013-02-23 08:54:00,
2013-02-23 03:59:00,29.7,26.3,29.12,WSW,248,3.8,3.8,87,0.00,,OVC034,0.00,VWS V14.01,2013-02-23 08:59:00,
2013-02-23 04:04:00,29.7,26.3,29.12,SSE,158,0.9,0.9,87,0.00,,,0.00,VWS V14.01,2013-02-23 09:04:00,
2013-02-23 04:09:00,29.7,26.5,29.09,SSW,202,1.6,1.6,88,0.00,,,0.00,VWS V14.01,2013-02-23 09:09:00,
2013-02-23 04:14:00,29.8,26.7,29.09,West,270,2.0,2.0,88,0.00,,,0.00,VWS V14.01,2013-02-23 09:14:00,
2013-02-23 04:19:00,29.8,26.7,29.09,SSE,158,3.1,3.1,88,0.00,,,0.00,VWS V14.01,2013-02-23 09:19:00,
2013-02-23 04:24:00,29.8,26.7,29.09,WSW,248,0.0,0.0,88,0.00,,,0.00,VWS V14.01,2013-02-23 09:24:00,
2013-02-23 04:29:00,29.8,26.7,29.09,SSW,202,4.0,4.0,88,0.00,,,0.00,VWS V14.01,2013-02-23 09:29:00,
2013-02-23 04:34:00,29.8,26.7,29.09,South,180,1.6,1.6,88,0.00,,,0.00,VWS V14.01,2013-02-23 09:34:00,
2013-02-23 04:39:00,29.8,26.7,29.09,WSW,248,2.0,2.0,88,0.00,,,0.00,VWS V14.01,2013-02-23 09:39:00,
2013-02-23 04:44:00,29.8,27.0,29.09,SSE,158,1.3,1.3,89,0.00,,,0.00,VWS V14.01,2013-02-23 09:44:00,
2013-02-23 04:49:00,29.7,26.8,29.09,WSW,248,2.0,2.0,89,0.00,,,0.00,VWS V14.01,2013-02-23 09:49:00,
2013-02-23 04:54:00,29.7,26.8,29.09,WSW,248,2.2,2.2,89,0.00,,,0.00,VWS V14.01,2013-02-23 09:54:00,
2013-02-23 04:59:00,29.7,26.8,29.12,WNW,292,4.7,4.7,89,0.00,,,0.00,VWS V14.01,2013-02-23 09:59:00,
2013-02-23 05:04:00,29.7,26.5,29.12,SSE,158,3.6,3.6,88,0.00,,,0.00,VWS V14.01,2013-02-23 10:04:00,
2013-02-23 05:09:00,29.7,26.8,29.12,SSW,202,1.1,1.1,89,0.00,,,0.00,VWS V14.01,2013-02-23 10:09:00,
2013-02-23 05:14:00,29.7,26.8,29.12,SSW,202,1.6,1.6,89,0.00,,,0.00,VWS V14.01,2013-02-23 10:14:00,
2013-02-23 05:19:00,29.7,26.8,29.12,SSW,202,2.5,2.5,89,0.00,,,0.00,VWS V14.01,2013-02-23 10:19:00,
2013-02-23 05:24:00,29.7,26.8,29.12,WSW,248,0.9,0.9,89,0.00,,,0.00,VWS V14.01,2013-02-23 10:24:00,
2013-02-23 05:29:00,29.7,26.8,29.09,SSW,202,0.0,0.0,89,0.00,,,0.00,VWS V14.01,2013-02-23 10:29:00,
2013-02-23 05:34:00,29.7,26.8,29.09,WSW,248,3.4,3.4,89,0.00,,,0.00,VWS V14.01,2013-02-23 10:34:00,
2013-02-23 05:39:00,29.7,26.8,29.09,WNW,292,2.9,2.9,89,0.00,,,0.00,VWS V14.01,2013-02-23 10:39:00,
2013-02-23 05:44:00,29.5,26.6,29.09,WSW,248,2.2,2.2,89,0.00,,,0.00,VWS V14.01,2013-02-23 10:44:00,
2013-02-23 05:49:00,29.5,26.6,29.09,WSW,248,2.9,2.9,89,0.00,,,0.00,VWS V14.01,2013-02-23 10:49:00,
2013-02-23 05:54:00,29.5,26.6,29.09,West,270,1.3,1.3,89,0.00,,,0.00,VWS V14.01,2013-02-23 10:54:00,
2013-02-23 05:59:00,29.5,26.6,29.12,WSW,248,2.9,2.9,89,0.00,,,0.00,VWS V14.01,2013-02-23 10:59:00,
2013-02-23 06:04:00,29.5,26.6,29.12,WSW,248,0.0,0.0,89,0.00,,,0.00,VWS V14.01,2013-02-23 11:04:00,
2013-02-23 06:09:00,29.5,26.6,29.12,WNW,292,0.0,0.0,89,0.00,,,0.00,VWS V14.01,2013-02-23 11:09:00,
2013-02-23 06:14:00,29.5,26.6,29.12,WSW,248,0.0,0.0,89,0.00,,,0.00,VWS V14.01,2013-02-23 11:14:00,
2013-02-23 06:19:00,29.5,26.6,29.12,WSW,248,0.0,0.0,89,0.00,,,0.00,VWS V14.01,2013-02-23 11:19:00,
2013-02-23 06:24:00,29.5,26.6,29.12,WSW,248,1.1,1.1,89,0.00,,,0.00,VWS V14.01,2013-02-23 11:24:00,
2013-02-23 06:29:00,29.5,26.6,29.12,WNW,292,0.0,0.0,89,0.00,,,0.00,VWS V14.01,2013-02-23 11:29:00,
2013-02-23 06:34:00,29.5,26.6,29.12,NNW,338,0.9,0.9,89,0.00,,,0.00,VWS V14.01,2013-02-23 11:34:00,
2013-02-23 06:39:00,29.5,26.6,29.12,WSW,248,2.7,2.7,89,0.00,,,0.00,VWS V14.01,2013-02-23 11:39:00,
2013-02-23 06:44:00,29.5,26.6,29.12,WSW,248,1.3,1.3,89,0.00,,,0.00,VWS V14.01,2013-02-23 11:44:00,
2013-02-23 06:49:00,29.5,26.6,29.12,WNW,292,1.1,1.1,89,0.00,,,0.00,VWS V14.01,2013-02-23 11:49:00,
2013-02-23 06:54:00,29.5,26.6,29.12,WNW,292,4.0,4.0,89,0.00,,,0.00,VWS V14.01,2013-02-23 11:54:00,
2013-02-23 06:59:00,29.5,26.6,29.12,WNW,292,3.1,3.1,89,0.00,,,0.00,VWS V14.01,2013-02-23 11:59:00,
2013-02-23 07:04:00,29.3,26.2,29.12,SSW,202,0.0,0.0,88,0.00,,OVC019,0.00,VWS V14.01,2013-02-23 12:04:00,
2013-02-23 07:09:00,29.5,26.6,29.12,West,270,2.9,2.9,89,0.00,,OVC019,0.00,VWS V14.01,2013-02-23 12:09:00,
2013-02-23 07:14:00,29.3,26.2,29.12,West,270,3.1,3.1,88,0.00,,OVC019,0.00,VWS V14.01,2013-02-23 12:14:00,
2013-02-23 07:19:00,29.5,26.6,29.12,WSW,248,0.0,0.0,89,0.00,,OVC019,0.00,VWS V14.01,2013-02-23 12:19:00,
2013-02-23 07:24:00,29.1,25.7,29.12,West,270,0.9,0.9,87,0.00,,OVC019,0.00,VWS V14.01,2013-02-23 12:24:00,
2013-02-23 07:29:00,29.5,26.6,29.12,WNW,292,2.5,2.5,89,0.00,,OVC019,0.00,VWS V14.01,2013-02-23 12:29:00,
2013-02-23 07:34:00,29.1,25.5,29.12,NW,315,2.2,2.2,86,0.00,,OVC019,0.00,VWS V14.01,2013-02-23 12:34:00,
2013-02-23 07:39:00,29.5,26.6,29.12,WSW,248,0.0,0.0,89,0.00,,OVC019,0.00,VWS V14.01,2013-02-23 12:39:00,
2013-02-23 07:44:00,29.5,26.6,29.12,SSE,158,0.0,0.0,89,0.00,,OVC019,0.00,VWS V14.01,2013-02-23 12:44:00,
2013-02-23 07:49:00,28.9,25.3,29.12,WSW,248,2.0,2.0,86,0.00,,OVC019,0.00,VWS V14.01,2013-02-23 12:49:00,
2013-02-23 07:54:00,29.5,26.6,29.12,SW,225,0.0,0.0,89,0.00,,OVC019,0.00,VWS V14.01,2013-02-23 12:54:00,
2013-02-23 07:59:00,29.1,25.5,29.12,SW,225,2.2,2.2,86,0.00,,OVC019,0.00,VWS V14.01,2013-02-23 12:59:00,
2013-02-23 08:04:00,29.1,25.2,29.12,SSW,202,2.7,2.7,85,0.00,,,0.00,VWS V14.01,2013-02-23 13:04:00,
2013-02-23 08:09:00,29.1,25.2,29.12,WSW,248,0.0,0.0,85,0.00,,,0.00,VWS V14.01,2013-02-23 13:09:00,
2013-02-23 08:14:00,29.1,25.2,29.12,West,270,0.0,0.0,85,0.00,,,0.00,VWS V14.01,2013-02-23 13:14:00,
2013-02-23 08:19:00,29.5,26.6,29.12,SSW,202,0.0,0.0,89,0.00,,,0.00,VWS V14.01,2013-02-23 13:19:00,
2013-02-23 08:24:00,29.5,26.6,29.12,WSW,248,1.1,1.1,89,0.00,,,0.00,VWS V14.01,2013-02-23 13:24:00,
2013-02-23 08:29:00,29.5,26.6,29.12,ESE,112,2.0,2.0,89,0.00,,,0.00,VWS V14.01,2013-02-23 13:29:00,
2013-02-23 08:34:00,29.1,24.9,29.12,SSW,202,3.6,3.6,84,0.00,,,0.00,VWS V14.01,2013-02-23 13:34:00,
2013-02-23 08:39:00,29.1,24.9,29.12,SSW,202,3.4,3.4,84,0.00,,,0.00,VWS V14.01,2013-02-23 13:39:00,
2013-02-23 08:43:00,29.1,24.9,29.14,SSW,202,0.0,0.0,84,0.00,,,0.00,VWS V14.01,2013-02-23 13:43:00,
2013-02-23 08:48:00,29.5,26.6,29.14,SSW,202,2.5,2.5,89,0.00,,,0.00,VWS V14.01,2013-02-23 13:48:00,
2013-02-23 08:53:00,29.5,26.6,29.14,SSW,202,2.5,2.5,89,0.00,,,0.00,VWS V14.01,2013-02-23 13:53:00,
2013-02-23 08:58:00,29.5,26.6,29.14,SSW,202,0.0,0.0,89,0.00,,,0.00,VWS V14.01,2013-02-23 13:58:00,
2013-02-23 09:03:00,29.5,26.6,29.14,SSW,202,0.0,0.0,89,0.00,,,0.00,VWS V14.01,2013-02-23 14:03:00,
2013-02-23 09:08:00,28.9,25.0,29.14,West,270,2.5,2.5,85,0.00,,,0.00,VWS V14.01,2013-02-23 14:08:00,
2013-02-23 09:13:00,28.9,25.3,29.14,WNW,292,2.2,2.2,86,0.00,,,0.00,VWS V14.01,2013-02-23 14:13:00,
2013-02-23 09:18:00,29.5,26.6,29.14,SSW,202,2.0,2.0,89,0.00,,,0.00,VWS V14.01,2013-02-23 14:18:00,
2013-02-23 09:23:00,28.9,25.3,29.14,West,270,0.0,0.0,86,0.00,,,0.00,VWS V14.01,2013-02-23 14:23:00,
2013-02-23 09:28:00,29.5,26.6,29.12,SSW,202,2.0,2.0,89,0.00,,,0.00,VWS V14.01,2013-02-23 14:28:00,
2013-02-23 09:33:00,29.5,26.6,29.12,SSW,202,0.0,0.0,89,0.00,,,0.00,VWS V14.01,2013-02-23 14:33:00,
2013-02-23 09:38:00,29.5,26.6,29.12,SSW,202,0.0,0.0,89,0.00,,,0.00,VWS V14.01,2013-02-23 14:38:00,
2013-02-23 09:43:00,29.8,26.2,29.12,NW,315,2.9,2.9,86,0.00,,,0.00,VWS V14.01,2013-02-23 14:43:00,
2013-02-23 09:48:00,29.5,26.6,29.12,SSW,202,0.0,0.0,89,0.00,,,0.00,VWS V14.01,2013-02-23 14:48:00,
2013-02-23 09:53:00,30.7,27.1,29.12,WSW,248,2.7,2.7,86,0.00,,,0.00,VWS V14.01,2013-02-23 14:53:00,
2013-02-23 09:58:00,31.1,27.4,29.14,WSW,248,3.4,3.4,86,0.00,,,0.00,VWS V14.01,2013-02-23 14:58:00,
2013-02-23 10:03:00,31.3,27.3,29.14,North,0,1.6,1.6,85,0.00,,,0.00,VWS V14.01,2013-02-23 15:03:00,
2013-02-23 10:08:00,31.1,27.1,29.14,SSE,158,0.9,0.9,85,0.00,,,0.00,VWS V14.01,2013-02-23 15:08:00,
2013-02-23 10:13:00,31.3,26.4,29.12,NNW,338,3.1,3.1,82,0.00,,,0.00,VWS V14.01,2013-02-23 15:13:00,
2013-02-23 10:18:00,31.1,25.7,29.12,WSW,248,4.0,4.0,80,0.00,,,0.00,VWS V14.01,2013-02-23 15:18:00,
2013-02-23 10:23:00,30.9,25.2,29.12,WNW,292,1.6,1.6,79,0.00,,,0.00,VWS V14.01,2013-02-23 15:23:00,
2013-02-23 10:28:00,31.1,25.4,29.14,West,270,2.0,2.0,79,0.00,,,0.00,VWS V14.01,2013-02-23 15:28:00,
2013-02-23 10:33:00,31.1,25.4,29.14,NNW,338,3.4,3.4,79,0.00,,,0.00,VWS V14.01,2013-02-23 15:33:00,
2013-02-23 10:38:00,31.3,25.5,29.14,WSW,248,2.7,2.7,79,0.00,,,0.00,VWS V14.01,2013-02-23 15:38:00,
2013-02-23 10:43:00,31.3,25.2,29.12,West,270,5.6,5.6,78,0.00,,,0.00,VWS V14.01,2013-02-23 15:43:00,
2013-02-23 10:48:00,31.1,24.8,29.12,SSW,202,2.9,2.9,77,0.00,,,0.00,VWS V14.01,2013-02-23 15:48:00,
2013-02-23 10:53:00,31.6,25.3,29.12,WSW,248,2.9,2.9,77,0.00,,,0.00,VWS V14.01,2013-02-23 15:53:00,
2013-02-23 10:58:00,31.6,24.6,29.12,WNW,292,4.9,4.9,75,0.00,,,0.00,VWS V14.01,2013-02-23 15:58:00,
2013-02-23 11:03:00,31.5,23.2,29.12,WNW,292,4.9,4.9,71,0.00,,,0.00,VWS V14.01,2013-02-23 16:03:00,
2013-02-23 11:08:00,32.0,24.3,29.12,South,180,5.4,5.4,73,0.00,,,0.00,VWS V14.01,2013-02-23 16:08:00,
2013-02-23 11:13:00,32.0,23.7,29.12,West,270,2.9,2.9,71,0.00,,,0.00,VWS V14.01,2013-02-23 16:13:00,
2013-02-23 11:18:00,32.2,22.5,29.12,SW,225,2.0,2.0,67,0.00,,,0.00,VWS V14.01,2013-02-23 16:18:00,
2013-02-23 11:23:00,32.2,22.1,29.12,WNW,292,6.0,6.0,66,0.00,,,0.00,VWS V14.01,2013-02-23 16:23:00,
2013-02-23 11:28:00,32.9,23.5,29.12,NW,315,0.9,0.9,68,0.00,,,0.00,VWS V14.01,2013-02-23 16:28:00,
2013-02-23 11:33:00,32.9,22.8,29.12,WSW,248,3.4,3.4,66,0.00,,,0.00,VWS V14.01,2013-02-23 16:33:00,
2013-02-23 11:38:00,32.7,19.6,29.12,SSE,158,3.1,3.1,58,0.00,,,0.00,VWS V14.01,2013-02-23 16:38:00,
2013-02-23 11:43:00,32.2,19.1,29.12,WSW,248,1.6,1.6,58,0.00,,,0.00,VWS V14.01,2013-02-23 16:43:00,
2013-02-23 11:48:00,32.2,19.5,29.12,WNW,292,3.1,3.1,59,0.00,,,0.00,VWS V14.01,2013-02-23 16:48:00,
2013-02-23 11:53:00,31.8,18.7,29.12,WNW,292,5.8,5.8,58,0.00,,,0.00,VWS V14.01,2013-02-23 16:53:00,
2013-02-23 11:58:00,31.6,18.6,29.12,NNW,338,4.0,4.0,58,0.00,,,0.00,VWS V14.01,2013-02-23 16:58:00,
2013-02-23 12:03:00,31.6,19.0,29.12,WNW,292,2.7,2.7,59,0.00,,OVC040,0.00,VWS V14.01,2013-02-23 17:03:00,
2013-02-23 12:08:00,32.0,20.1,29.12,WSW,248,3.4,3.4,61,0.00,,OVC040,0.00,VWS V14.01,2013-02-23 17:08:00,
2013-02-23 12:13:00,31.6,19.4,29.14,WNW,292,5.4,5.4,60,0.00,,OVC040,0.00,VWS V14.01,2013-02-23 17:13:00,
2013-02-23 12:18:00,31.3,19.8,29.14,WNW,292,2.9,2.9,62,0.00,,OVC040,0.00,VWS V14.01,2013-02-23 17:18:00,
2013-02-23 12:23:00,31.3,20.5,29.14,WNW,292,3.1,3.1,64,0.00,,OVC040,0.00,VWS V14.01,2013-02-23 17:23:00,
2013-02-23 12:28:00,31.3,20.9,29.14,WSW,248,4.9,4.9,65,0.00,,OVC040,0.00,VWS V14.01,2013-02-23 17:28:00,
2013-02-23 12:33:00,31.3,21.3,29.14,WSW,248,3.1,3.1,66,0.00,,OVC040,0.00,VWS V14.01,2013-02-23 17:33:00,
2013-02-23 12:38:00,31.6,22.3,29.14,SSE,158,4.7,4.7,68,0.00,,OVC040,0.00,VWS V14.01,2013-02-23 17:38:00,
2013-02-23 12:43:00,31.6,22.0,29.14,NW,315,4.7,4.7,67,0.00,,OVC040,0.00,VWS V14.01,2013-02-23 17:43:00,
2013-02-23 12:48:00,31.5,22.5,29.14,West,270,2.5,2.5,69,0.00,,OVC040,0.00,VWS V14.01,2013-02-23 17:48:00,
2013-02-23 12:53:00,31.5,22.5,29.14,WNW,292,3.8,3.8,69,0.00,,OVC040,0.00,VWS V14.01,2013-02-23 17:53:00,
2013-02-23 12:58:00,31.5,22.5,29.14,SSE,158,2.9,2.9,69,0.00,,OVC040,0.00,VWS V14.01,2013-02-23 17:58:00,
2013-02-23 13:03:00,31.5,22.5,29.14,SSW,202,5.4,5.4,69,0.00,,,0.00,VWS V14.01,2013-02-23 18:03:00,
2013-02-23 13:08:00,30.9,22.0,29.14,SSW,202,4.0,4.0,69,0.00,,,0.00,VWS V14.01,2013-02-23 18:08:00,
2013-02-23 13:13:00,30.9,22.3,29.14,WSW,248,2.9,2.9,70,0.00,,,0.00,VWS V14.01,2013-02-23 18:13:00,
2013-02-23 13:18:00,31.1,22.5,29.14,WSW,248,8.5,8.5,70,0.00,,,0.00,VWS V14.01,2013-02-23 18:18:00,
2013-02-23 13:23:00,31.3,23.0,29.14,SSW,202,4.3,4.3,71,0.00,,,0.00,VWS V14.01,2013-02-23 18:23:00,
2013-02-23 13:28:00,31.6,23.3,29.14,WSW,248,6.0,6.0,71,0.00,,,0.00,VWS V14.01,2013-02-23 18:28:00,
2013-02-23 13:33:00,31.8,23.2,29.14,NNE,22,3.6,3.6,70,0.00,,,0.00,VWS V14.01,2013-02-23 18:33:00,
2013-02-23 13:38:00,31.8,23.2,29.14,WSW,248,3.4,3.4,70,0.00,,,0.00,VWS V14.01,2013-02-23 18:38:00,
2013-02-23 13:43:00,32.2,22.5,29.12,WSW,248,3.1,3.1,67,0.00,,,0.00,VWS V14.01,2013-02-23 18:43:00,
2013-02-23 13:48:00,32.4,23.0,29.12,SSW,202,3.8,3.8,68,0.00,,,0.00,VWS V14.01,2013-02-23 18:48:00,
2013-02-23 13:53:00,32.2,0.0,29.12,WSW,248,3.8,3.8,100,0.00,,,0.00,VWS V14.01,2013-02-23 18:53:00,
2013-02-23 13:58:00,32.2,22.8,29.12,West,270,4.0,4.0,68,0.00,,,0.00,VWS V14.01,2013-02-23 18:58:00,
2013-02-23 14:03:00,31.8,21.8,29.12,WNW,292,2.5,2.5,66,0.00,,,0.00,VWS V14.01,2013-02-23 19:03:00,
2013-02-23 14:08:00,31.3,21.3,29.12,WSW,248,1.1,1.1,66,0.00,,,0.00,VWS V14.01,2013-02-23 19:08:00,
2013-02-23 14:13:00,31.3,21.6,29.12,West,270,2.7,2.7,67,0.00,,,0.00,VWS V14.01,2013-02-23 19:13:00,
2013-02-23 14:18:00,31.1,21.4,29.12,SSE,158,8.5,8.5,67,0.00,,,0.00,VWS V14.01,2013-02-23 19:18:00,
2013-02-23 14:23:00,31.1,21.4,29.12,SSW,202,7.2,7.2,67,0.00,,,0.00,VWS V14.01,2013-02-23 19:23:00,
2013-02-23 14:28:00,31.1,21.8,29.12,SSW,202,7.2,7.2,68,0.00,,,0.00,VWS V14.01,2013-02-23 19:28:00,
2013-02-23 14:33:00,30.6,21.6,29.12,SSW,202,6.0,6.0,69,0.00,,,0.00,VWS V14.01,2013-02-23 19:33:00,
2013-02-23 14:38:00,30.7,21.8,29.12,WNW,292,3.6,3.6,69,0.00,,,0.00,VWS V14.01,2013-02-23 19:38:00,
2013-02-23 14:43:00,31.1,22.1,29.12,SSW,202,4.9,4.9,69,0.00,,,0.00,VWS V14.01,2013-02-23 19:43:00,
2013-02-23 14:48:00,31.1,22.5,29.12,WNW,292,3.6,3.6,70,0.00,,,0.00,VWS V14.01,2013-02-23 19:48:00,
2013-02-23 14:53:00,30.4,21.8,29.12,WNW,292,3.6,3.6,70,0.00,,,0.00,VWS V14.01,2013-02-23 19:53:00,
2013-02-23 14:58:00,30.7,22.5,29.12,NNW,338,0.0,0.0,71,0.00,,,0.00,VWS V14.01,2013-02-23 19:58:00,
2013-02-23 15:03:00,30.4,21.8,29.12,WNW,292,3.6,3.6,70,0.00,,,0.00,VWS V14.01,2013-02-23 20:03:00,
2013-02-23 15:08:00,31.8,23.8,29.12,SSW,202,3.8,3.8,72,0.00,,,0.00,VWS V14.01,2013-02-23 20:08:00,
2013-02-23 15:13:00,30.4,21.8,29.12,WSW,248,3.6,3.6,70,0.00,,,0.00,VWS V14.01,2013-02-23 20:13:00,
2013-02-23 15:18:00,31.1,22.5,29.12,North,0,3.4,3.4,70,0.00,,,0.00,VWS V14.01,2013-02-23 20:18:00,
2013-02-23 15:23:00,30.4,21.8,29.12,WSW,248,3.6,3.6,70,0.00,,,0.00,VWS V14.01,2013-02-23 20:23:00,
2013-02-23 15:28:00,30.4,21.8,29.12,WSW,248,3.6,3.6,70,0.00,,,0.00,VWS V14.01,2013-02-23 20:28:00,
2013-02-23 15:33:00,30.2,21.3,29.12,WSW,248,3.8,3.8,69,0.00,,,0.00,VWS V14.01,2013-02-23 20:33:00,
2013-02-23 15:38:00,30.4,21.8,29.12,West,270,6.3,6.3,70,0.00,,,0.00,VWS V14.01,2013-02-23 20:38:00,
2013-02-23 15:43:00,30.4,21.8,29.12,West,270,6.3,6.3,70,0.00,,,0.00,VWS V14.01,2013-02-23 20:43:00,
2013-02-23 15:48:00,29.8,21.9,29.12,SSW,202,1.6,1.6,72,0.00,,,0.00,VWS V14.01,2013-02-23 20:48:00,
2013-02-23 15:53:00,30.4,21.8,29.12,West,270,6.3,6.3,70,0.00,,,0.00,VWS V14.01,2013-02-23 20:53:00,
2013-02-23 15:58:00,30.4,21.8,29.12,West,270,6.3,6.3,70,0.00,,,0.00,VWS V14.01,2013-02-23 20:58:00,
2013-02-23 16:03:00,30.4,21.8,29.12,West,270,3.4,3.4,70,0.00,,,0.00,VWS V14.01,2013-02-23 21:03:00,
2013-02-23 16:08:00,29.3,22.1,29.12,West,270,3.4,3.4,74,0.00,,,0.00,VWS V14.01,2013-02-23 21:08:00,
2013-02-23 16:13:00,29.3,22.4,29.14,WSW,248,4.7,4.7,75,0.00,,,0.00,VWS V14.01,2013-02-23 21:13:00,
2013-02-23 16:18:00,29.3,22.7,29.14,SSW,202,1.6,1.6,76,0.00,,,0.00,VWS V14.01,2013-02-23 21:18:00,
2013-02-23 16:23:00,29.3,22.1,29.14,West,270,3.1,3.1,74,0.00,,,0.00,VWS V14.01,2013-02-23 21:23:00,
2013-02-23 16:28:00,29.5,22.9,29.14,WSW,248,1.3,1.3,76,0.00,,,0.00,VWS V14.01,2013-02-23 21:28:00,
2013-02-23 16:33:00,29.5,23.2,29.14,WSW,248,1.6,1.6,77,0.04,,,0.04,VWS V14.01,2013-02-23 21:33:00,
2013-02-23 16:38:00,29.3,22.1,29.14,WSW,248,3.1,3.1,74,0.04,,,0.04,VWS V14.01,2013-02-23 21:38:00,
2013-02-23 16:43:00,29.3,22.1,29.14,WSW,248,4.0,4.0,74,0.04,,,0.04,VWS V14.01,2013-02-23 21:43:00,
2013-02-23 16:48:00,29.3,22.1,29.14,WSW,248,3.8,3.8,74,0.04,,,0.04,VWS V14.01,2013-02-23 21:48:00,
2013-02-23 16:53:00,28.8,22.2,29.14,WNW,292,3.1,3.1,76,0.04,,,0.04,VWS V14.01,2013-02-23 21:53:00,
2013-02-23 16:58:00,28.6,22.0,29.14,West,270,3.1,3.1,76,0.04,,,0.04,VWS V14.01,2013-02-23 21:58:00,
2013-02-23 17:03:00,28.6,22.0,29.14,WSW,248,2.0,2.0,76,0.04,,,0.04,VWS V14.01,2013-02-23 22:03:00,
2013-02-23 17:08:00,28.6,22.0,29.14,NNW,338,3.1,3.1,76,0.04,,,0.04,VWS V14.01,2013-02-23 22:08:00,
2013-02-23 17:13:00,28.6,22.0,29.14,SSW,202,4.3,4.3,76,0.04,,,0.04,VWS V14.01,2013-02-23 22:13:00,
2013-02-23 17:18:00,29.3,22.1,29.14,WSW,248,2.7,2.7,74,0.04,,,0.04,VWS V14.01,2013-02-23 22:18:00,
2013-02-23 17:23:00,29.3,22.1,29.14,SSW,202,2.9,2.9,74,0.04,,,0.04,VWS V14.01,2013-02-23 22:23:00,
2013-02-23 17:28:00,28.4,22.1,29.14,SSW,202,0.0,0.0,77,0.04,,,0.04,VWS V14.01,2013-02-23 22:28:00,
2013-02-23 17:33:00,28.4,22.1,29.14,SSW,202,3.4,3.4,77,0.04,,,0.04,VWS V14.01,2013-02-23 22:33:00,
2013-02-23 17:38:00,28.0,21.8,29.14,SSE,158,2.0,2.0,77,0.00,,,0.04,VWS V14.01,2013-02-23 22:38:00,
2013-02-23 17:43:00,27.9,21.6,29.14,SSW,202,4.0,4.0,77,0.00,,,0.04,VWS V14.01,2013-02-23 22:43:00,
2013-02-23 17:48:00,27.9,21.9,29.14,SSW,202,5.4,5.4,78,0.00,,,0.04,VWS V14.01,2013-02-23 22:48:00,
2013-02-23 17:53:00,27.7,21.7,29.14,WSW,248,4.0,4.0,78,0.00,,,0.04,VWS V14.01,2013-02-23 22:53:00,
2013-02-23 17:58:00,27.5,21.5,29.14,SSW,202,2.5,2.5,78,0.00,,,0.04,VWS V14.01,2013-02-23 22:58:00,
2013-02-23 18:03:00,27.1,21.5,29.14,SW,225,0.0,0.0,79,0.00,,,0.04,VWS V14.01,2013-02-23 23:03:00,
2013-02-23 18:08:00,27.1,21.5,29.14,WSW,248,2.0,2.0,79,0.00,,,0.04,VWS V14.01,2013-02-23 23:08:00,
2013-02-23 18:13:00,27.1,21.8,29.14,WSW,248,0.0,0.0,80,0.00,,,0.04,VWS V14.01,2013-02-23 23:13:00,
2013-02-23 18:18:00,27.0,21.6,29.14,SSE,158,2.9,2.9,80,0.00,,,0.04,VWS V14.01,2013-02-23 23:18:00,
2013-02-23 18:23:00,27.0,21.6,29.14,ENE,68,0.0,0.0,80,0.00,,,0.04,VWS V14.01,2013-02-23 23:23:00,
2013-02-23 18:28:00,27.0,21.6,29.14,South,180,0.0,0.0,80,0.00,,,0.04,VWS V14.01,2013-02-23 23:28:00,
2013-02-23 18:33:00,27.0,21.6,29.14,West,270,0.0,0.0,80,0.00,,,0.04,VWS V14.01,2013-02-23 23:33:00,
2013-02-23 18:38:00,26.8,21.5,29.14,SSW,202,3.8,3.8,80,0.00,,,0.04,VWS V14.01,2013-02-23 23:38:00,
2013-02-23 18:43:00,26.8,21.7,29.14,WSW,248,0.0,0.0,81,0.00,,,0.04,VWS V14.01,2013-02-23 23:43:00,
2013-02-23 18:48:00,26.6,21.6,29.14,SSW,202,3.6,3.6,81,0.00,,,0.04,VWS V14.01,2013-02-23 23:48:00,
2013-02-23 18:53:00,26.6,21.6,29.14,South,180,3.1,3.1,81,0.00,,,0.04,VWS V14.01,2013-02-23 23:53:00,
2013-02-23 18:58:00,26.6,21.9,29.14,WSW,248,0.0,0.0,82,0.00,,,0.04,VWS V14.01,2013-02-23 23:58:00,
2013-02-23 19:02:00,26.6,22.1,29.14,SSW,202,0.0,0.0,83,0.00,,,0.04,VWS V14.01,2013-02-24 00:02:00,
2013-02-23 19:07:00,26.4,22.0,29.14,SSW,202,1.1,1.1,83,0.00,,,0.04,VWS V14.01,2013-02-24 00:07:00,
2013-02-23 19:12:00,26.4,22.0,29.17,WNW,292,0.0,0.0,83,0.00,,,0.04,VWS V14.01,2013-02-24 00:12:00,
2013-02-23 19:17:00,26.2,21.8,29.17,SSW,202,2.7,2.7,83,0.00,,,0.04,VWS V14.01,2013-02-24 00:17:00,
2013-02-23 19:22:00,26.2,21.8,29.17,SSW,202,0.0,0.0,83,0.00,,,0.04,VWS V14.01,2013-02-24 00:22:00,
2013-02-23 19:27:00,26.4,22.0,29.17,SSW,202,0.0,0.0,83,0.00,,,0.04,VWS V14.01,2013-02-24 00:27:00,
2013-02-23 19:32:00,26.2,21.8,29.17,SSW,202,0.9,0.9,83,0.00,,,0.04,VWS V14.01,2013-02-24 00:32:00,
2013-02-23 19:37:00,26.2,22.1,29.17,SSW,202,2.7,2.7,84,0.00,,,0.04,VWS V14.01,2013-02-24 00:37:00,
2013-02-23 19:42:00,26.2,22.1,29.14,SSW,202,2.0,2.0,84,0.00,,,0.04,VWS V14.01,2013-02-24 00:42:00,
2013-02-23 19:47:00,26.2,22.1,29.14,SSW,202,2.0,2.0,84,0.00,,,0.04,VWS V14.01,2013-02-24 00:47:00,
2013-02-23 19:52:00,26.2,22.1,29.14,SSE,158,1.3,1.3,84,0.00,,,0.04,VWS V14.01,2013-02-24 00:52:00,
2013-02-23 19:57:00,26.2,22.1,29.14,SE,135,1.3,1.3,84,0.00,,,0.04,VWS V14.01,2013-02-24 00:57:00,
2013-02-23 20:02:00,26.1,21.9,29.14,SSW,202,1.6,1.6,84,0.00,,,0.04,VWS V14.01,2013-02-24 01:02:00,
2013-02-23 20:07:00,26.1,21.9,29.14,South,180,6.0,6.0,84,0.00,,,0.04,VWS V14.01,2013-02-24 01:07:00,
2013-02-23 20:12:00,25.9,22.0,29.17,SSE,158,3.4,3.4,85,0.00,,,0.04,VWS V14.01,2013-02-24 01:12:00,
2013-02-23 20:17:00,26.1,22.2,29.14,SSW,202,3.8,3.8,85,0.00,,,0.04,VWS V14.01,2013-02-24 01:17:00,
2013-02-23 20:22:00,25.9,22.0,29.17,SSE,158,2.5,2.5,85,0.00,,,0.04,VWS V14.01,2013-02-24 01:22:00,
2013-02-23 20:27:00,25.9,22.0,29.17,SSW,202,2.2,2.2,85,0.00,,,0.04,VWS V14.01,2013-02-24 01:27:00,
2013-02-23 20:32:00,25.7,21.8,29.17,SSW,202,4.0,4.0,85,0.00,,,0.04,VWS V14.01,2013-02-24 01:32:00,
2013-02-23 20:37:00,25.7,21.8,29.17,SSE,158,4.0,4.0,85,0.00,,,0.04,VWS V14.01,2013-02-24 01:37:00,
2013-02-23 20:42:00,25.5,21.6,29.17,South,180,1.6,1.6,85,0.00,,,0.04,VWS V14.01,2013-02-24 01:42:00,
2013-02-23 20:47:00,25.5,21.6,29.17,SSE,158,2.9,2.9,85,0.00,,,0.04,VWS V14.01,2013-02-24 01:47:00,
2013-02-23 20:52:00,25.5,21.6,29.17,South,180,2.0,2.0,85,0.00,,,0.04,VWS V14.01,2013-02-24 01:52:00,
2013-02-23 20:57:00,25.5,21.6,29.17,South,180,2.5,2.5,85,0.00,,,0.04,VWS V14.01,2013-02-24 01:57:00,
2013-02-23 21:02:00,25.5,21.6,29.17,SSE,158,4.3,4.3,85,0.00,,,0.04,VWS V14.01,2013-02-24 02:02:00,
2013-02-23 21:07:00,25.5,21.6,29.17,WSW,248,3.6,3.6,85,0.00,,,0.04,VWS V14.01,2013-02-24 02:07:00,
2013-02-23 21:12:00,25.5,21.9,29.17,South,180,0.0,0.0,86,0.00,,,0.04,VWS V14.01,2013-02-24 02:12:00,
2013-02-23 21:17:00,25.5,21.9,29.17,SSE,158,1.1,1.1,86,0.00,,,0.04,VWS V14.01,2013-02-24 02:17:00,
2013-02-23 21:22:00,25.5,21.6,29.17,SSE,158,1.1,1.1,85,0.00,,,0.04,VWS V14.01,2013-02-24 02:22:00,
2013-02-23 21:27:00,25.5,21.9,29.17,SSE,158,2.9,2.9,86,0.00,,,0.04,VWS V14.01,2013-02-24 02:27:00,
2013-02-23 21:32:00,25.5,21.9,29.17,South,180,2.7,2.7,86,0.00,,,0.04,VWS V14.01,2013-02-24 02:32:00,
2013-02-23 21:37:00,25.5,21.9,29.17,SW,225,2.0,2.0,86,0.00,,,0.04,VWS V14.01,2013-02-24 02:37:00,
2013-02-23 21:42:00,25.5,21.9,29.17,South,180,5.4,5.4,86,0.00,,,0.04,VWS V14.01,2013-02-24 02:42:00,
2013-02-23 21:47:00,25.5,21.6,29.17,SSW,202,0.0,0.0,85,0.00,,,0.04,VWS V14.01,2013-02-24 02:47:00,
2013-02-23 21:52:00,25.5,21.6,29.17,SSE,158,3.1,3.1,85,0.00,,,0.04,VWS V14.01,2013-02-24 02:52:00,
2013-02-23 21:57:00,25.5,21.6,29.17,South,180,2.5,2.5,85,0.00,,,0.04,VWS V14.01,2013-02-24 02:57:00,
2013-02-23 22:02:00,25.5,21.6,29.17,South,180,0.0,0.0,85,0.00,,,0.04,VWS V14.01,2013-02-24 03:02:00,
2013-02-23 22:07:00,25.5,21.6,29.17,SSW,202,2.5,2.5,85,0.00,,,0.04,VWS V14.01,2013-02-24 03:07:00,
2013-02-23 22:12:00,25.5,21.6,29.17,SSW,202,2.9,2.9,85,0.00,,,0.04,VWS V14.01,2013-02-24 03:12:00,
2013-02-23 22:17:00,25.5,21.4,29.17,SSE,158,2.5,2.5,84,0.00,,,0.04,VWS V14.01,2013-02-24 03:17:00,
2013-02-23 22:22:00,25.5,21.4,29.17,SSE,158,2.5,2.5,84,0.00,,,0.04,VWS V14.01,2013-02-24 03:22:00,
2013-02-23 22:27:00,25.5,21.6,29.17,SSE,158,2.5,2.5,85,0.00,,,0.04,VWS V14.01,2013-02-24 03:27:00,
2013-02-23 22:32:00,25.3,21.5,29.17,SSE,158,0.0,0.0,85,0.00,,,0.04,VWS V14.01,2013-02-24 03:32:00,
2013-02-23 22:37:00,25.3,21.5,29.17,South,180,2.0,2.0,85,0.00,,,0.04,VWS V14.01,2013-02-24 03:37:00,
2013-02-23 22:42:00,25.3,21.2,29.17,SSW,202,2.0,2.0,84,0.00,,,0.04,VWS V14.01,2013-02-24 03:42:00,
2013-02-23 22:47:00,25.3,21.2,29.17,South,180,0.0,0.0,84,0.00,,,0.04,VWS V14.01,2013-02-24 03:47:00,
2013-02-23 22:52:00,25.3,21.5,29.17,SSW,202,0.0,0.0,85,0.00,,,0.04,VWS V14.01,2013-02-24 03:52:00,
2013-02-23 22:57:00,25.5,21.6,29.14,SSE,158,3.1,3.1,85,0.00,,,0.04,VWS V14.01,2013-02-24 03:57:00,
2013-02-23 23:02:00,25.5,21.4,29.14,WSW,248,3.1,3.1,84,0.00,,,0.04,VWS V14.01,2013-02-24 04:02:00,
2013-02-23 23:07:00,25.5,21.4,29.14,SSE,158,2.0,2.0,84,0.00,,,0.04,VWS V14.01,2013-02-24 04:07:00,
2013-02-23 23:12:00,25.5,21.4,29.14,SSE,158,0.0,0.0,84,0.00,,,0.04,VWS V14.01,2013-02-24 04:12:00,
2013-02-23 23:17:00,25.5,21.6,29.14,SSW,202,1.6,1.6,85,0.00,,,0.04,VWS V14.01,2013-02-24 04:17:00,
2013-02-23 23:22:00,25.5,21.4,29.14,SSW,202,0.0,0.0,84,0.00,,,0.04,VWS V14.01,2013-02-24 04:22:00,
2013-02-23 23:27:00,25.5,21.4,29.14,SSW,202,2.7,2.7,84,0.00,,,0.04,VWS V14.01,2013-02-24 04:27:00,
2013-02-23 23:32:00,25.3,21.2,29.14,SSW,202,2.7,2.7,84,0.00,,,0.04,VWS V14.01,2013-02-24 04:32:00,
2013-02-23 23:37:00,25.5,21.4,29.14,South,180,2.9,2.9,84,0.00,,,0.04,VWS V14.01,2013-02-24 04:37:00,
2013-02-23 23:42:00,25.5,21.4,29.14,WSW,248,1.3,1.3,84,0.00,,,0.04,VWS V14.01,2013-02-24 04:42:00,
2013-02-23 23:47:00,25.5,21.4,29.14,SSW,202,0.0,0.0,84,0.00,,,0.04,VWS V14.01,2013-02-24 04:47:00,
2013-02-23 23:52:00,25.2,21.0,29.14,SSW,202,3.8,3.8,84,0.00,,,0.04,VWS V14.01,2013-02-24 04:52:00,
2013-02-23 23:57:00,25.5,21.4,29.14,WSW,248,2.7,2.7,84,0.00,,,0.04,VWS V14.01,2013-02-24 04:57:00,